Regional Weather Roundup
Issued by NWS

Home | Current Version | Previous Version | Graphics & Text | Print | Product List | Glossary Off
Versions: 1 2 3 4 5 6 7 8 9 10 11 12 13 14 15 16 17 18 19 20 21 22 23 24 25 26 27 28 29 30 31 32 33 34 35 36 37 38 39 40 41 42 43 44 45 46 47 48 49 50

044
ASUS43 KDTX 261110
RWRMI
MICHIGAN HOURLY REGIONAL WEATHER ROUNDUP
NATIONAL WEATHER SERVICE DETROIT/PONTIAC MI
700 AM EDT MON SEP 26 2016

NOTE: "FAIR" INDICATES FEW OR NO CLOUDS BELOW 12,000 FEET WITH NO
SIGNIFICANT WEATHER AND/OR OBSTRUCTION TO VISIBILITY.

MIZ047>049-052>055-059>063-066>070-074>076-081>083-261200-
SOUTHEAST LOWER MICHIGAN

CITY           SKY/WX    TMP DP  RH WIND       PRES   REMARKS
ADRIAN         CLOUDY    63  58  83 NW13G25   29.91R
ALMA           RAIN      62  61  96 SW9G16    29.86S
ANN ARBOR      LGT RAIN  66  63  90 W14G22    29.89R
BAD AXE        CLOUDY    61  56  84 S7        29.84S
CARO           CLOUDY    65  59  82 SW9       29.85R
DETROIT CITY   CLOUDY    65  61  87 SW3       29.87R
DETROIT        CLOUDY    64  61  90 SW7       29.88R
FLINT          CLOUDY    64  59  83 W10       29.86S
GROSSE ILE     CLOUDY    67  59  73 SW3       29.85S
HILLSDALE      CLOUDY    61  59  94 W9        29.92S
HOWELL         LGT RAIN  64  60  87 W10       29.88R

CITY           SKY/WX    TMP DP  RH WIND       PRES   REMARKS
JACKSON        LGT RAIN  63  61  93 W13       29.91R
LAMBERTVILLE   DRIZZLE   65  61  86 W5        29.89R
LANSING        LGT RAIN  62  58  86 W15       29.90R
LAPEER         CLOUDY    65  58  80 W3        29.86R
MASON          HVY RAIN  64  59  86 W6G20     29.91R
MONROE         CLOUDY    63  61  91 W6        29.87R
MT. CLEMENS    CLOUDY    65  59  80 SW7       29.85R
PONTIAC        HVY RAIN  63  60  90 S7        29.87R FOG
PORT HOPE        N/A     63  56  78 VRB7      29.81F
PORT HURON     CLOUDY    63  59  88 S8        29.86S
TRI CITIES     CLOUDY    62  60  93 SW10      29.86R FOG
MIDLAND        LGT RAIN  61  59  95 SW7       29.84R
TROY           CLOUDY    65  60  84 SW5       29.88S
SAGINAW HB     LGT RAIN  63  59  88 SW7       29.84S
$$
MIZ043>046-050>051-056>058-064>065-071>073-077>080-261200-
SOUTHWEST LOWER MICHIGAN

CITY           SKY/WX    TMP DP  RH WIND       PRES   REMARKS
BATTLE CREEK   LGT RAIN  60  58  92 SW8       29.93R
BENTON HARBOR  CLOUDY    62  54  74 W13G21    29.94R
BIG RAPIDS     CLOUDY    60  58  91 W10       29.84R
COLDWATER      LGT RAIN  60  59  96 W8        29.95R
FREMONT        CLOUDY    58  53  83 W8G16     29.88R
HOLLAND        CLOUDY    61  55  81 W12       29.92S
GRAND RAPIDS   LGT RAIN  60  58  92 SW10      29.89S
IONIA          CLOUDY    60  58  93 SW10      29.88R
KALAMAZOO      LGT RAIN  60  56  86 SW6       29.92F
LUDINGTON      CLOUDY    59  47  63 W14G22    29.84R
MARSHALL       LGT RAIN  60  60  99 W10G17    29.93R
MOUNT PLEASANT LGT RAIN  62  60  94 SW6       29.84R
MUSKEGON       CLOUDY    62  51  67 W16G22    29.89R
SOUTH HAVEN    CLOUDY    63  57  82 W13       29.93R
$$
MIZ016>042-261200-
NORTHERN LOWER MICHIGAN

CITY           SKY/WX    TMP DP  RH WIND       PRES   REMARKS
ALPENA         LGT RAIN  58  56  93 S6        29.79F
BEAVER ISLAND  CLOUDY    60  55  83 SW13G18   29.71S
BELLAIRE       CLOUDY    59  57  94 SW3       29.76S
CADILLAC       CLOUDY    58  55  91 SW10G17   29.81S
CHARLEVOIX     CLOUDY    61  57  88 SW8G16    29.76F
FRANKFORT      CLOUDY    60  51  71 W15G24    29.79R
GAYLORD        MOCLDY    57  54  89 SW10      29.77F
GRAYLING       CLOUDY    58  57  97 SW5       29.80R
HARBOR SPRINGS CLOUDY    59  58  97 S8        29.74S
HOUGHTON LAKE  CLOUDY    59  57  93 SW10      29.81S
MANISTEE       CLOUDY    59  49  69 W17G24    29.82R
OSCODA         CLOUDY    60  59  97 SW10      29.80F
PELLSTON       CLOUDY    58  56  93 S6        29.74F
ROGERS CITY    RAIN      57  55  93 S7        29.78R
TRAVERSE CITY  CLOUDY    61  56  83 SW7       29.77R
$$
MIZ007>008-015-261200-
EASTERN UPPER MICHIGAN

CITY           SKY/WX    TMP DP  RH WIND       PRES   REMARKS
KINROSS        CLOUDY    57  57 100 S12       29.71F
MACKINAC ISLAN CLOUDY    58  58 100 S12G21    29.72F
NEWBERRY       CLOUDY    58  57  97 SW6       29.68S
S. S. MARIE    CLOUDY    58  57  97 SE9       29.71F
MUNISING         N/A     57  54  89 SW6       29.66S
$$
MIZ004>006-011>014-085-261200-
CENTRAL UPPER MICHIGAN

CITY           SKY/WX    TMP DP  RH WIND       PRES   REMARKS
MANISTIQUE     CLOUDY    57  55  91 SW6       29.69F
ESCANABA       CLOUDY    55  52  89 SW10      29.71F
MENOMINEE      CLOUDY    52  46  80 W8G16     29.78R
SAWYER-GWINN   DRIZZLE   52  48  87 W10       29.67F
$$
MIZ001>003-009>011-084-261200-
WESTERN UPPER MICHIGAN

CITY           SKY/WX    TMP DP  RH WIND       PRES   REMARKS
IRON MOUNTAIN  PTCLDY    50  44  80 W10       29.71S
HOUGHTON       CLOUDY    51  45  79 S7        29.60F
COPPER HARBOR    N/A     53  49  86 W9        29.58F
IRONWOOD       LGT RAIN  49  47  93 W17G24    29.67F
$$

ABBREVIATIONS USED IN REMARKS
   TC - TEMPERATURE IN CELSIUS
  WCI - WIND CHILL INDEX
   HX - HEAT INDEX
  VSB - VISIBILITY





USA.gov is the U.S. government's official web portal to all federal, state and local government web resources and services.